[Date Prev][Date Next][Thread Prev][Thread Next] - [Date Index][Thread Index][Author Index]

2 Line ISS Keps 7-14



ISS
1 25544U 98067A   01195.34327332  .00330643  00000-0  32164-2 0  2106
2 25544  51.5674 311.2214 0017168 283.0110 191.1573 15.64508316151320


----
Via the sarex mailing list at AMSAT.ORG courtesy of AMSAT-NA.
To unsubscribe, send "unsubscribe sarex" to Majordomo@amsat.org



AMSAT Top AMSAT Home